TimeCST,TemperatureF,Dew PointF,Humidity,Sea Level PressureIn,VisibilityMPH,Wind Direction,Wind SpeedMPH,Gust SpeedMPH,PrecipitationIn,Events,Conditions,WindDirDegrees,DateUTC
12:54 AM,34.0,23.0,64,30.00,10.0,West,9.2,-,N/A,,Overcast,280,2013-11-26 06:54:00
1:54 AM,34.0,23.0,64,30.00,10.0,West,10.4,-,N/A,,Overcast,270,2013-11-26 07:54:00
2:02 AM,33.8,23.0,65,29.97,10.0,WNW,9.2,-,N/A,,Overcast,290,2013-11-26 08:02:00
2:43 AM,33.8,21.2,60,29.98,10.0,WNW,12.7,23.0,N/A,,Overcast,290,2013-11-26 08:43:00
2:54 AM,32.0,19.9,61,30.02,10.0,WNW,12.7,25.3,N/A,,Overcast,300,2013-11-26 08:54:00
3:54 AM,30.0,16.0,56,30.04,10.0,NW,11.5,19.6,N/A,,Overcast,310,2013-11-26 09:54:00
4:54 AM,28.0,14.0,56,30.06,10.0,WNW,12.7,-,N/A,,Overcast,300,2013-11-26 10:54:00
5:54 AM,27.0,12.9,56,30.06,10.0,NNW,13.8,-,N/A,,Overcast,340,2013-11-26 11:54:00
6:54 AM,26.1,10.0,51,30.08,10.0,NNW,10.4,-,N/A,,Overcast,330,2013-11-26 12:54:00
7:54 AM,25.0,10.9,55,30.09,10.0,Calm,Calm,-,N/A,,Mostly Cloudy,0,2013-11-26 13:54:00
8:54 AM,25.0,10.0,53,30.10,10.0,Calm,Calm,-,N/A,,Overcast,0,2013-11-26 14:54:00
9:54 AM,27.0,12.0,53,30.09,10.0,West,8.1,-,N/A,,Overcast,260,2013-11-26 15:54:00
10:18 AM,24.8,15.8,69,30.06,1.8,West,13.8,20.7,0.00,Snow,Light Snow,280,2013-11-26 16:18:00
10:20 AM,24.8,17.6,74,30.06,0.8,West,11.5,20.7,0.00,Snow,Light Snow,270,2013-11-26 16:20:00
10:32 AM,24.8,19.4,80,30.06,1.2,NW,13.8,-,0.00,Snow,Light Snow,310,2013-11-26 16:32:00
10:43 AM,24.8,17.6,74,30.06,3.0,NW,15.0,28.8,0.00,Snow,Light Snow,310,2013-11-26 16:43:00
10:54 AM,25.0,16.0,69,30.10,9.0,NW,15.0,24.2,0.00,Snow,Light Snow,320,2013-11-26 16:54:00
11:54 AM,24.1,14.0,65,30.10,10.0,NW,18.4,25.3,0.00,,Overcast,310,2013-11-26 17:54:00
12:54 PM,23.0,10.0,58,30.12,10.0,NW,17.3,26.5,N/A,,Overcast,320,2013-11-26 18:54:00
1:54 PM,21.0,5.0,50,30.14,10.0,North,13.8,-,N/A,,Overcast,350,2013-11-26 19:54:00
2:54 PM,19.0,1.9,47,30.18,10.0,NW,17.3,26.5,N/A,,Overcast,320,2013-11-26 20:54:00
3:54 PM,18.0,1.0,48,30.21,10.0,NW,10.4,-,N/A,,Overcast,320,2013-11-26 21:54:00
4:54 PM,16.0,3.0,57,30.23,10.0,NW,10.4,-,N/A,,Partly Cloudy,320,2013-11-26 22:54:00
5:54 PM,15.1,1.9,56,30.25,10.0,NNW,8.1,-,N/A,,Clear,330,2013-11-26 23:54:00
6:54 PM,14.0,1.9,59,30.27,10.0,NNW,10.4,-,N/A,,Clear,330,2013-11-27 00:54:00
7:54 PM,12.9,3.0,65,30.29,10.0,NNW,9.2,-,N/A,,Clear,330,2013-11-27 01:54:00
8:54 PM,12.9,1.9,62,30.30,10.0,NNW,9.2,-,N/A,,Clear,330,2013-11-27 02:54:00
9:54 PM,12.0,1.9,64,30.29,10.0,NW,10.4,-,N/A,,Clear,320,2013-11-27 03:54:00
10:54 PM,12.0,1.9,64,30.30,10.0,NW,9.2,-,N/A,,Clear,320,2013-11-27 04:54:00
11:54 PM,10.9,1.9,67,30.30,10.0,NNW,8.1,-,N/A,,Clear,330,2013-11-27 05:54:00